Temp
-6 -6 -6 -6 -6 -5 -5 -6 -7 -8 -8 -7 -8 -7 -7 -8 -7 -8 -8 -7 -7 -8 -8 -7 -8 -8 -8 -8 -8 -8 -8 -9 -9 -8 -8 -8 -8 -8 -8 -8 -8 -8 -8 -8 -8 -8 -7 -7 -8
-6 -6 -6 -5 -5 -5 -5 -6 -7 -7 -7 -7 -7 -7 -7 -8 -8 -8 -8 -8 -8 -7 -8 -8 -8 -8 -8 -8 -8 -8 -8 -9 -9 -9 -9 -8 -8 -8 -8 -8 -8 -8 -8 -8 -8 -8 -8 -8 -8
-6 -6 -6 -5 -5 -5 -6 -6 -7 -7 -7 -7 -7 -7 -7 -7 -8 -8 -8 -8 -8 -8 -8 -8 -8 -8 -9 -9 -9 -9 -8 -8 -8 -9 -9 -9 -9 -9 -9 -9 -9 -9 -8 -8 -8 -8 -8 -8 -8
-6 -6 -6 -6 -5 -5 -5 -6 -7 -7 -7 -7 -7 -7 -7 -7 -7 -8 -8 -8 -8 -7 -8 -8 -8 -8 -8 -9 -9 -9 -8 -8 -8 -8 -9 -8 -9 -9 -9 -9 -9 -9 -9 -9 -8 -8 -8 -8 -8
-5 -6 -6 -6 -5 -5 -5 -7 -7 -7 -7 -7 -7 -7 -8 -8 -7 -8 -8 -8 -7 -7 -8 -8 -9 -9 -9 -9 -9 -9 -9 -8 -8 -8 -9 -8 -9 -9 -9 -9 -9 -9 -9 -9 -9 -8 -8 -8 -8
-5 -5 -5 -4 -4 -5 -5 -6 -6 -7 -7 -7 -7 -7 -7 -7 -7 -8 -8 -8 -8 -8 -8 -9 -9 -9 -9 -9 -9 -9 -9 -9 -9 -9 -9 -9 -9 -9 -10 -10 -10 -9 -9 -9 -9 -8 -9 -8 -8
-5 -6 -6 -5 -5 -4 -6 -7 -6 -6 -7 -8 -7 -7 -7 -7 -7 -7 -8 -8 -8 -8 -8 -9 -9 -10 -9 -9 -9 -9 -9 -9 -9 -9 -9 -9 -9 -10 -10 -10 -10 -10 -10 -9 -9 -9 -9 -9 -9
-5 -6 -6 -5 -5 -5 -5 -6 -6 -6 -7 -7 -7 -7 -8 -7 -7 -8 -7 -8 -8 -8 -9 -9 -9 -10 -9 -9 -9 -9 -9 -9 -9 -9 -9 -10 -10 -10 -10 -10 -10 -10 -10 -9 -9 -9 -9 -9 -9
-6 -6 -6 -5 -6 -5 -6 -6 -6 -6 -7 -7 -7 -7 -7 -7 -7 -7 -8 -8 -8 -8 -8 -9 -9 -9 -9 -9 -9 -9 -9 -9 -9 -9 -10 -10 -10 -10 -10 -10 -10 -10 -9 -9 -9 -9 -8 -8 -8
-5 -5 -5 -5 -5 -4 -4 -5 -6 -6 -6 -7 -7 -7 -7 -7 -7 -7 -8 -8 -8 -8 -8 -8 -8 -9 -9 -9 -9 -9 -9 -9 -9 -9 -9 -10 -10 -10 -10 -10 -10 -10 -10 -9 -9 -9 -9 -8 -8
-5 -5 -5 -5 -5 -4 -5 -5 -7 -6 -7 -7 -7 -7 -7 -7 -6 -7 -7 -7 -8 -8 -8 -8 -8 -9 -9 -9 -9 -9 -9 -8 -9 -9 -9 -9 -10 -10 -10 -10 -10 -10 -9 -9 -9 -9 -9 -9 -8
-6 -6 -5 -5 -5 -5 -4 -5 -5 -7 -6 -6 -7 -6 -7 -7 -6 -7 -7 -7 -7 -7 -8 -8 -8 -8 -8 -9 -9 -9 -8 -8 -8 -8 -9 -9 -9 -10 -10 -9 -9 -9 -9 -9 -9 -9 -9 -9 -8
-6 -6 -6 -6 -5 -5 -5 -5 -4 -5 -6 -6 -6 -6 -7 -7 -7 -7 -7 -7 -7 -7 -7 -8 -8 -8 -8 -8 -8 -8 -8 -8 -8 -8 -8 -9 -9 -9 -9 -9 -10 -10 -9 -9 -8 -9 -9 -9 -9
-6 -6 -6 -6 -6 -5 -5 -6 -5 -5 -7 -6 -6 -6 -6 -7 -7 -6 -6 -7 -7 -7 -7 -7 -7 -7 -7 -8 -8 -8 -7 -8 -8 -8 -8 -8 -8 -9 -9 -9 -9 -9 -9 -9 -8 -8 -8 -8 -8
-5 -6 -5 -6 -6 -5 -5 -5 -5 -5 -6 -6 -6 -6 -6 -7 -6 -7 -6 -7 -7 -7 -7 -7 -7 -7 -7 -7 -7 -8 -7 -7 -7 -7 -7 -7 -8 -8 -8 -9 -9 -9 -8 -8 -8 -8 -7 -8 -8
-6 -5 -6 -5 -5 -6 -6 -6 -5 -6 -6 -6 -6 -6 -6 -6 -6 -7 -6 -7 -7 -7 -7 -7 -7 -7 -7 -7 -7 -7 -7 -7 -7 -7 -7 -7 -8 -8 -8 -8 -8 -8 -8 -8 -8 -8 -8 -8 -8
-7 -7 -6 -5 -5 -5 -6 -5 -5 -5 -5 -5 -5 -6 -6 -6 -7 -6 -6 -6 -6 -7 -7 -7 -7 -7 -7 -7 -7 -7 -7 -7 -7 -7 -7 -7 -7 -8 -8 -8 -8 -8 -9 -8 -8 -9 -8 -8 -8
-7 -7 -6 -6 -5 -6 -6 -6 -6 -6 -6 -4 -5 -5 -5 -6 -6 -6 -6 -6 -7 -7 -7 -7 -7 -7 -7 -6 -7 -7 -7 -7 -7 -7 -7 -7 -7 -7 -8 -8 -8 -8 -8 -9 -9 -9 -9 -8 -9
-8 -7 -7 -6 -6 -5 -6 -5 -6 -5 -5 -4 -4 -5 -5 -5 -6 -6 -6 -7 -7 -7 -7 -7 -7 -7 -7 -6 -6 -6 -6 -6 -7 -7 -7 -7 -7 -8 -8 -8 -8 -8 -9 -9 -9 -9 -9 -9 -9
-8 -8 -7 -7 -6 -6 -6 -5 -6 -6 -4 -4 -4 -5 -5 -5 -6 -6 -6 -6 -6 -7 -7 -7 -6 -7 -7 -7 -6 -6 -6 -7 -7 -7 -7 -7 -7 -7 -7 -7 -7 -8 -8 -8 -8 -9 -9 -9 -9
-9 -8 -8 -7 -7 -7 -6 -6 -6 -5 -5 -4 -4 -5 -5 -6 -5 -5 -5 -6 -6 -6 -7 -6 -6 -6 -7 -7 -7 -6 -6 -7 -7 -7 -7 -7 -8 -8 -8 -7 -7 -7 -7 -8 -8 -8 -9 -9 -9
-10 -8 -8 -7 -7 -6 -6 -6 -6 -5 -5 -5 -4 -4 -5 -5 -5 -4 -5 -5 -5 -5 -6 -6 -6 -6 -7 -7 -7 -7 -7 -7 -7 -6 -7 -7 -7 -7 -7 -7 -7 -7 -7 -7 -8 -8 -8 -9 -8
-10 -9 -8 -7 -7 -6 -6 -6 -6 -5 -6 -5 -4 -5 -5 -6 -6 -5 -5 -5 -5 -5 -6 -6 -6 -7 -7 -7 -7 -7 -6 -7 -7 -7 -7 -7 -7 -7 -7 -7 -8 -8 -7 -7 -7 -7 -8 -8 -8
-10 -9 -8 -8 -8 -7 -7 -6 -4 -4 -5 -5 -5 -5 -5 -6 -6 -6 -5 -5 -5 -5 -6 -6 -6 -6 -7 -7 -7 -7 -7 -7 -7 -7 -7 -7 -7 -7 -7 -6 -7 -7 -7 -7 -7 -7 -8 -8 -8
-9 -9 -9 -9 -8 -7 -7 -6 -5 -6 -6 -5 -5 -6 -6 -6 -6 -6 -6 -5 -6 -6 -6 -6 -6 -6 -6 -7 -7 -7 -7 -7 -7 -7 -7 -7 -7 -7 -7 -7 -7 -7 -7 -7 -7 -7 -7 -7 -7
-10 -10 -10 -9 -8 -8 -8 -7 -7 -6 -6 -7 -6 -5 -5 -6 -6 -6 -7 -6 -6 -6 -6 -6 -6 -6 -6 -6 -7 -7 -6 -6 -7 -7 -7 -6 -6 -7 -6 -7 -7 -7 -7 -7 -7 -7 -7 -7 -7
-10 -10 -10 -9 -10 -9 -9 -8 -8 -8 -8 -7 -7 -5 -4 -5 -6 -6 -7 -6 -7 -6 -5 -5 -6 -6 -6 -6 -6 -7 -6 -6 -6 -7 -6 -6 -6 -6 -6 -6 -7 -6 -6 -7 -7 -7 -7 -7 -7
-11 -11 -10 -9 -10 -9 -9 -9 -9 -9 -7 -8 -8 -7 -5 -5 -5 -6 -6 -6 -7 -6 -6 -5 -6 -6 -6 -6 -6 -6 -6 -6 -6 -6 -6 -6 -6 -7 -6 -6 -6 -7 -7 -6 -6 -6 -7 -7 -7
-10 -11 -11 -10 -10 -9 -9 -9 -9 -9 -7 -7 -6 -7 -5 -6 -6 -6 -6 -6 -6 -7 -7 -6 -6 -5 -6 -6 -6 -6 -6 -6 -6 -6 -6 -6 -6 -5 -6 -6 -6 -6 -6 -6 -6 -6 -6 -6 -6
-12 -12 -11 -11 -10 -10 -9 -9 -9 -9 -8 -7 -7 -7 -6 -6 -7 -7 -7 -7 -6 -7 -7 -6 -6 -6 -5 -5 -6 -6 -6 -6 -6 -6 -5 -6 -6 -5 -5 -6 -6 -6 -6 -6 -6 -6 -6 -7 -6
Height
5875 5874 5874 5875 5877 5876 5872 5873 5872 5872 5871 5871 5872 5871 5871 5871 5868 5871 5871 5871 5870 5870 5871 5872 5871 5873 5875 5875 5874 5876 5877 5879 5880 5882 5882 5882 5882 5883 5884 5887 5888 5889 5891 5892 5893 5894 5895 5897 5898
5875 5876 5876 5876 5877 5878 5876 5875 5874 5874 5873 5873 5873 5873 5872 5872 5872 5871 5873 5873 5873 5872 5873 5874 5874 5874 5875 5876 5878 5879 5880 5881 5881 5881 5881 5882 5883 5884 5886 5888 5889 5890 5892 5894 5895 5896 5897 5900 5901
5876 5877 5878 5878 5877 5879 5879 5876 5873 5874 5874 5874 5874 5874 5874 5873 5874 5874 5877 5877 5878 5877 5877 5877 5877 5877 5877 5879 5880 5881 5881 5883 5883 5883 5884 5883 5884 5885 5887 5890 5891 5891 5893 5895 5897 5898 5899 5902 5902
5876 5878 5878 5877 5879 5881 5880 5878 5877 5877 5875 5876 5875 5875 5876 5875 5877 5876 5878 5880 5880 5880 5880 5880 5880 5880 5879 5880 5882 5883 5883 5884 5884 5883 5883 5884 5886 5887 5888 5892 5893 5894 5895 5896 5898 5900 5901 5902 5904
5877 5876 5877 5876 5880 5882 5881 5880 5880 5878 5877 5877 5877 5877 5877 5878 5879 5879 5880 5881 5882 5881 5880 5881 5882 5882 5882 5883 5884 5885 5885 5885 5886 5886 5887 5889 5888 5889 5891 5893 5894 5895 5895 5898 5900 5902 5904 5906 5906
5879 5878 5878 5878 5881 5881 5879 5880 5880 5880 5879 5879 5879 5879 5879 5880 5881 5880 5881 5881 5882 5882 5881 5882 5883 5883 5884 5884 5885 5886 5888 5888 5888 5888 5890 5891 5891 5892 5894 5896 5897 5898 5898 5900 5902 5904 5906 5908 5909
5881 5878 5878 5881 5883 5882 5880 5880 5883 5884 5882 5881 5882 5881 5882 5883 5883 5881 5882 5882 5883 5882 5882 5883 5884 5885 5886 5887 5889 5889 5889 5889 5890 5891 5892 5893 5894 5895 5897 5898 5899 5900 5901 5902 5904 5905 5908 5911 5912
5879 5879 5878 5881 5884 5883 5882 5883 5887 5889 5886 5885 5886 5884 5884 5886 5885 5884 5886 5885 5884 5884 5885 5885 5886 5887 5888 5890 5891 5892 5892 5894 5893 5893 5893 5894 5896 5897 5899 5899 5900 5900 5902 5904 5906 5908 5910 5912 5915
5879 5879 5878 5882 5883 5885 5886 5886 5889 5893 5891 5889 5890 5888 5885 5887 5886 5887 5887 5887 5888 5887 5887 5888 5889 5889 5892 5893 5893 5894 5895 5895 5894 5895 5895 5896 5898 5899 5900 5902 5903 5904 5906 5906 5907 5910 5912 5914 5917
5879 5877 5879 5882 5885 5885 5886 5886 5888 5892 5892 5891 5893 5891 5889 5890 5889 5889 5890 5890 5891 5890 5890 5892 5892 5893 5894 5895 5896 5896 5896 5896 5896 5896 5896 5897 5898 5899 5901 5903 5905 5906 5907 5910 5912 5912 5914 5916 5918
5878 5876 5877 5881 5882 5884 5888 5886 5887 5890 5892 5893 5893 5891 5890 5890 5891 5892 5892 5892 5893 5894 5894 5895 5895 5897 5898 5899 5899 5900 5900 5900 5899 5898 5898 5899 5899 5900 5902 5904 5907 5909 5910 5913 5915 5916 5917 5918 5919
5879 5879 5878 5879 5881 5883 5887 5888 5888 5891 5892 5894 5895 5893 5892 5892 5891 5894 5895 5895 5897 5897 5898 5898 5899 5900 5902 5903 5903 5903 5903 5903 5902 5902 5902 5902 5904 5905 5906 5908 5909 5912 5914 5916 5918 5918 5920 5921 5922
5877 5878 5876 5877 5879 5882 5887 5889 5890 5892 5892 5894 5896 5895 5895 5895 5895 5897 5897 5899 5898 5899 5901 5901 5902 5903 5904 5905 5906 5906 5906 5905 5905 5906 5905 5906 5907 5909 5910 5913 5913 5915 5917 5919 5920 5922 5923 5924 5925
5875 5876 5873 5874 5879 5882 5885 5888 5891 5895 5893 5894 5896 5896 5896 5898 5899 5899 5899 5899 5901 5902 5903 5903 5905 5907 5908 5909 5910 5910 5909 5909 5910 5910 5909 5910 5911 5913 5916 5917 5918 5919 5921 5923 5924 5925 5927 5928 5929
5873 5873 5870 5867 5875 5880 5884 5888 5889 5892 5894 5895 5898 5897 5898 5900 5902 5901 5902 5903 5904 5905 5906 5907 5908 5910 5911 5912 5913 5913 5914 5914 5916 5916 5915 5916 5917 5917 5919 5920 5920 5920 5922 5925 5926 5928 5929 5931 5933
5872 5868 5869 5870 5876 5881 5885 5887 5887 5890 5893 5895 5898 5899 5900 5900 5902 5903 5904 5906 5907 5907 5907 5907 5910 5912 5913 5914 5915 5916 5918 5919 5921 5920 5920 5920 5921 5922 5922 5922 5923 5924 5926 5928 5930 5931 5932 5933 5936
5868 5867 5869 5870 5871 5878 5882 5884 5887 5889 5892 5896 5898 5899 5902 5901 5904 5907 5906 5909 5910 5910 5910 5910 5913 5914 5916 5916 5918 5920 5921 5922 5924 5925 5925 5925 5927 5927 5927 5926 5927 5928 5930 5932 5933 5934 5936 5936 5938
5866 5867 5868 5866 5869 5867 5880 5882 5883 5886 5888 5893 5897 5900 5902 5902 5904 5907 5908 5909 5910 5911 5913 5913 5915 5915 5917 5919 5921 5923 5924 5926 5928 5929 5929 5930 5931 5930 5930 5930 5930 5931 5932 5934 5935 5937 5940 5940 5941
5865 5868 5867 5867 5868 5870 5877 5879 5880 5884 5886 5891 5896 5898 5900 5901 5904 5907 5910 5910 5911 5912 5914 5916 5917 5917 5918 5920 5923 5926 5927 5928 5928 5930 5930 5931 5933 5933 5933 5933 5934 5934 5934 5936 5937 5937 5940 5940 5941
5864 5864 5865 5864 5865 5871 5872 5876 5879 5881 5885 5889 5895 5899 5900 5902 5905 5907 5911 5912 5913 5914 5916 5918 5919 5919 5921 5923 5925 5927 5930 5930 5930 5931 5932 5933 5934 5935 5935 5936 5936 5937 5937 5938 5938 5938 5940 5940 5942
5859 5862 5864 5865 5865 5868 5868 5871 5875 5881 5882 5887 5893 5898 5901 5902 5904 5908 5910 5912 5914 5917 5918 5919 5921 5922 5922 5924 5926 5927 5929 5931 5932 5933 5933 5934 5934 5936 5936 5937 5938 5938 5940 5941 5940 5940 5940 5942 5943
5856 5859 5862 5863 5864 5866 5866 5869 5875 5875 5880 5883 5888 5893 5898 5902 5903 5906 5909 5912 5914 5918 5919 5920 5921 5923 5924 5926 5927 5927 5929 5930 5933 5934 5935 5936 5936 5937 5938 5940 5940 5941 5941 5941 5941 5940 5941 5941 5942
5853 5856 5861 5862 5862 5862 5862 5866 5869 5869 5874 5882 5885 5889 5894 5899 5902 5904 5908 5910 5912 5917 5919 5921 5922 5922 5925 5926 5927 5929 5930 5931 5934 5933 5934 5935 5937 5937 5938 5938 5940 5941 5941 5942 5943 5941 5942 5942 5942
5849 5853 5857 5860 5860 5860 5861 5863 5862 5859 5868 5876 5881 5886 5890 5895 5898 5900 5905 5909 5911 5915 5918 5921 5924 5925 5927 5927 5928 5929 5932 5933 5933 5934 5934 5935 5936 5936 5937 5938 5937 5938 5940 5941 5943 5943 5943 5943 5943
5848 5850 5854 5858 5858 5859 5859 5860 5861 5858 5867 5874 5879 5883 5887 5891 5893 5897 5902 5906 5910 5914 5917 5919 5923 5926 5928 5929 5931 5932 5933 5933 5935 5935 5936 5935 5936 5937 5937 5937 5937 5938 5939 5940 5942 5943 5943 5944 5945
5850 5851 5854 5856 5857 5858 5858 5859 5861 5863 5866 5870 5876 5877 5883 5887 5889 5893 5897 5901 5905 5910 5914 5918 5921 5925 5927 5929 5931 5932 5934 5934 5936 5936 5936 5935 5936 5936 5938 5938 5938 5937 5939 5938 5939 5941 5942 5943 5945
5849 5850 5853 5852 5854 5857 5858 5860 5862 5863 5866 5868 5868 5870 5874 5880 5884 5889 5893 5897 5901 5906 5910 5916 5920 5923 5927 5928 5929 5930 5931 5933 5934 5934 5935 5935 5936 5936 5937 5938 5938 5937 5938 5939 5937 5939 5942 5943 5944
5844 5846 5850 5852 5853 5857 5859 5860 5861 5861 5862 5864 5864 5862 5864 5873 5879 5885 5889 5893 5898 5901 5905 5911 5917 5921 5923 5927 5928 5930 5931 5932 5933 5933 5933 5935 5937 5937 5936 5935 5936 5937 5937 5938 5939 5938 5938 5940 5941
5841 5842 5845 5849 5852 5855 5858 5860 5860 5861 5862 5863 5862 5862 5856 5865 5876 5882 5888 5890 5894 5897 5902 5907 5912 5917 5919 5921 5925 5927 5928 5930 5932 5932 5931 5931 5932 5933 5933 5933 5934 5935 5936 5936 5937 5938 5938 5938 5938
5834 5836 5838 5842 5848 5852 5854 5858 5858 5860 5860 5863 5862 5861 5860 5867 5872 5877 5882 5887 5891 5895 5897 5903 5908 5912 5914 5917 5920 5923 5925 5926 5927 5928 5928 5929 5929 5929 5929 5930 5932 5933 5934 5934 5934 5935 5936 5937 5936
Wind_Speed
10 13 2 7 8 8 13 15 15 14 11 14 15 14 18 15 20 19 15 14 13 13 10 10 10 11 12 11 11 8 8 6 7 5 7 8 8 8 9 10 11 12 12 13 13 15 15 15 16
8 8 1 5 10 10 13 14 17 12 11 11 15 13 16 16 15 17 12 11 12 12 10 9 9 8 8 8 7 6 5 5 5 8 8 7 8 10 10 11 12 13 13 13 13 16 16 17 17
8 9 7 4 8 11 14 14 16 12 10 10 11 12 12 14 13 16 10 9 9 10 10 9 8 7 8 8 7 6 5 4 3 5 6 7 8 9 10 11 12 13 14 14 15 16 18 18 18
10 7 5 1 6 10 13 17 17 12 9 10 9 10 10 10 12 13 11 8 9 11 11 9 8 9 8 8 7 7 6 6 6 6 6 6 7 9 10 10 12 12 14 15 16 16 18 19 19
10 6 8 2 3 6 13 16 14 13 14 13 12 11 9 11 10 11 12 11 9 12 12 10 10 11 11 11 10 10 10 10 11 11 11 11 11 11 11 12 13 13 14 14 15 16 18 20 20
8 4 1 3 1 5 9 11 14 11 14 13 13 11 9 9 9 11 10 10 9 12 14 12 12 13 13 14 13 12 11 10 10 10 9 9 11 13 13 13 14 14 14 15 17 18 19 19 20
7 6 9 10 4 8 10 10 11 8 12 11 10 10 11 10 8 12 10 10 11 11 13 13 14 15 15 15 14 12 10 10 9 8 8 7 10 13 15 16 16 15 15 17 20 20 20 19 18
5 4 18 7 4 8 9 7 9 8 11 12 6 10 10 9 10 11 11 12 12 12 13 14 14 12 14 13 12 12 12 12 10 8 7 9 10 12 13 16 17 17 19 20 21 23 21 21 19
8 11 17 10 9 11 11 7 8 11 10 13 9 7 12 10 9 11 12 13 12 14 13 15 17 17 13 14 12 12 12 11 9 8 7 11 11 12 15 14 15 17 17 21 25 24 21 22 22
9 11 20 10 11 10 10 12 8 9 9 12 10 9 11 12 12 14 14 15 14 14 15 15 15 15 14 12 11 11 11 11 12 13 17 16 14 15 17 15 15 17 19 20 24 23 21 20 22
8 11 15 13 12 10 12 7 7 10 11 10 9 11 11 10 16 16 16 17 16 15 16 16 15 15 14 12 16 15 14 16 16 21 20 18 16 18 19 15 17 19 20 22 23 24 23 21 22
11 4 9 16 11 9 11 8 8 13 10 11 9 14 13 9 14 15 16 17 18 16 16 17 15 15 17 15 18 17 15 15 18 20 19 19 19 17 15 18 19 21 24 22 23 22 22 22 22
14 7 5 17 17 13 10 12 6 13 9 10 10 14 14 10 11 13 16 16 19 16 16 16 15 16 16 17 17 17 16 17 17 17 18 17 15 16 15 16 16 22 22 21 23 21 21 21 21
15 12 16 17 25 16 12 6 8 8 7 8 9 11 15 11 10 12 16 16 16 16 18 17 14 14 14 20 15 17 18 22 20 19 20 20 19 18 16 19 18 22 19 19 18 18 16 17 19
15 11 9 22 24 20 12 12 14 14 10 10 9 9 12 12 9 12 13 15 14 15 18 17 15 13 13 14 14 13 16 23 21 22 23 24 23 22 20 19 18 20 19 18 16 15 16 16 15
16 9 9 23 29 22 16 14 17 16 12 16 13 11 10 12 7 10 11 13 15 15 16 18 15 14 13 15 16 17 16 20 20 20 20 21 22 22 20 19 18 19 19 17 15 14 15 16 14
19 18 8 28 23 25 16 14 18 16 16 15 16 15 13 12 8 9 11 13 15 15 15 16 15 13 14 16 16 15 17 18 16 16 17 17 18 19 18 15 15 18 16 14 14 13 13 12 12
23 20 13 11 21 30 17 17 17 22 18 16 17 17 16 13 12 10 9 12 15 13 11 13 14 14 12 15 15 16 16 16 14 12 12 13 16 17 16 15 15 15 15 14 12 10 9 8 8
21 21 13 14 13 27 24 18 17 21 19 16 17 17 16 12 12 10 9 9 12 13 13 13 14 16 12 13 15 14 13 14 13 11 11 10 11 14 14 14 14 12 13 13 15 14 10 10 9
24 23 15 19 15 14 22 31 20 24 21 18 17 17 18 15 13 12 10 11 11 12 13 13 13 16 15 15 14 16 15 13 12 9 10 8 9 11 12 12 13 11 11 9 12 13 12 12 10
23 26 16 11 15 18 25 23 24 26 23 22 21 19 18 19 17 14 13 12 11 12 12 13 13 14 14 14 14 13 13 12 11 9 9 7 6 7 9 8 9 8 8 9 9 10 11 8 8
20 25 24 13 13 13 17 16 18 40 23 24 27 22 21 19 20 16 14 12 10 12 10 10 12 12 13 12 13 14 13 12 9 7 6 6 5 5 5 5 5 6 6 6 6 6 8 8 8
23 22 13 15 7 8 11 20 19 25 39 26 27 25 21 23 21 21 17 14 11 10 11 10 9 10 10 12 10 8 10 10 8 7 6 4 3 3 5 3 3 2 3 4 5 4 5 5 5
30 26 28 7 6 3 7 12 17 23 31 23 22 23 26 23 23 26 21 17 14 10 11 12 11 10 10 10 11 8 8 8 8 7 7 6 6 5 4 4 5 3 2 2 4 3 4 4 5
30 28 27 4 9 9 10 5 7 16 33 37 28 25 23 27 28 27 23 19 15 14 14 14 13 12 11 10 9 9 9 7 7 8 6 7 6 6 6 5 5 5 5 4 5 5 5 4 3
21 15 25 11 11 7 5 5 3 9 23 24 31 34 32 29 30 29 27 23 23 21 18 15 14 13 12 11 11 9 9 9 7 4 5 4 4 4 6 7 6 7 8 8 6 6 5 5 6
14 10 15 17 11 4 1 7 8 1 7 5 10 22 35 38 37 32 31 26 25 22 20 19 16 14 14 13 12 12 12 10 8 7 5 2 6 6 4 7 6 7 8 9 9 8 7 7 7
19 17 17 22 11 6 2 5 2 5 5 9 12 17 25 43 35 35 33 29 28 26 24 22 18 18 16 15 13 13 13 14 11 11 10 8 10 10 11 12 10 8 7 8 7 7 7 8 7
26 25 23 22 16 13 8 4 4 3 7 12 11 12 18 51 34 28 30 29 28 26 27 25 24 23 21 19 18 17 17 15 14 14 15 13 12 11 11 10 11 11 11 10 9 7 7 7 7
26 25 28 25 22 19 18 11 12 12 10 12 5 17 12 27 25 28 22 27 31 30 29 24 26 26 26 23 22 20 19 20 20 18 17 15 13 12 10 10 14 13 12 11 11 10 10 10 9
Wind_Direction
11 337 1 30 59 55 79 75 83 94 86 80 97 103 100 90 90 79 74 96 110 109 113 112 102 100 101 108 110 102 97 93 99 113 119 123 120 109 107 112 114 117 120 119 120 112 108 109 115
353 359 138 34 51 63 71 86 86 89 96 99 106 102 107 99 95 88 85 73 84 94 101 101 102 104 99 102 107 102 106 89 95 105 109 109 116 121 120 119 119 121 123 126 124 118 116 119 120
348 8 322 69 61 75 91 77 73 66 85 105 112 107 102 108 107 102 97 101 103 113 115 113 106 104 98 92 86 93 93 89 82 101 116 114 121 128 130 127 123 126 128 134 134 128 128 129 127
335 349 302 31 47 78 99 90 88 91 86 94 93 94 96 95 112 100 112 112 116 114 109 108 100 101 95 88 88 88 87 98 116 130 119 114 120 117 119 127 127 127 127 134 136 133 136 133 128
337 348 251 246 17 95 103 92 79 84 76 70 77 87 97 98 121 102 112 112 112 107 97 97 95 100 106 103 96 100 98 96 97 99 100 103 105 118 128 129 126 124 125 127 128 132 132 129 123
316 349 179 70 48 131 93 87 81 76 75 69 69 90 87 95 103 108 100 102 106 97 100 99 97 97 105 108 102 99 101 98 98 101 109 111 105 110 111 112 115 114 120 124 127 131 129 125 121
300 289 221 261 269 141 96 96 75 85 82 74 71 95 75 77 92 92 92 92 92 87 96 97 98 102 107 109 106 106 96 86 83 80 79 82 92 106 110 104 116 114 121 128 130 128 121 119 121
319 320 258 273 211 136 128 105 104 95 96 91 76 71 100 76 92 102 94 90 91 92 95 99 89 97 100 100 101 89 80 74 70 67 84 89 91 103 118 111 118 128 130 129 127 126 126 123 126
266 311 224 224 221 165 141 149 123 115 110 108 101 76 90 79 86 102 96 91 96 95 93 95 88 90 102 97 94 88 85 83 84 84 106 119 117 114 116 119 118 125 130 130 131 131 128 127 125
276 291 199 195 194 174 156 144 115 115 114 120 108 93 95 110 109 111 107 94 89 86 95 106 106 105 94 95 99 89 98 107 96 88 102 116 123 125 124 131 126 130 130 129 130 127 124 128 125
280 358 184 170 179 168 158 139 134 121 126 101 89 84 92 98 101 111 105 97 99 93 99 106 109 104 101 101 94 107 95 88 85 99 112 107 104 129 137 131 128 130 128 130 130 127 130 131 130
259 303 236 214 181 182 181 173 156 133 122 109 100 88 88 88 94 109 105 100 103 103 102 105 109 109 103 101 98 98 90 95 98 108 114 101 117 116 118 126 132 134 129 137 132 130 130 133 129
236 234 271 204 208 211 196 171 201 149 131 118 110 101 97 95 105 119 112 107 101 103 104 106 110 104 105 102 96 94 90 87 98 112 97 97 115 118 111 109 109 151 138 138 134 131 134 133 133
211 234 250 203 194 200 191 176 199 166 124 128 113 107 103 107 130 129 114 109 109 109 98 97 97 98 103 110 103 90 92 98 111 103 103 103 105 112 121 122 119 122 138 134 128 129 133 133 136
214 241 268 198 177 202 199 192 205 187 181 151 143 118 115 116 127 113 125 119 122 117 110 109 102 104 101 99 107 102 100 97 103 98 100 103 110 114 122 127 128 130 132 134 132 139 134 133 142
220 269 179 163 183 197 195 202 193 201 183 170 160 144 128 115 113 122 130 133 130 118 111 104 101 102 102 99 95 111 117 107 107 105 103 103 105 109 112 118 120 130 135 138 140 138 136 140 142
220 223 200 201 192 185 191 190 201 208 189 169 163 156 144 129 134 127 138 145 133 121 118 116 116 112 108 105 111 116 117 107 106 107 103 99 105 107 113 120 124 135 138 141 138 138 142 145 141
219 224 244 235 201 182 199 210 202 201 194 179 176 165 155 157 143 147 149 145 133 136 132 133 126 116 107 109 119 122 123 120 118 110 104 103 105 103 114 121 125 132 141 141 140 138 148 148 169
217 221 243 258 191 198 199 230 212 209 213 200 188 175 166 175 156 157 147 146 144 143 141 140 137 127 119 118 123 126 125 124 120 117 109 108 97 98 117 114 116 129 138 151 146 143 161 162 161
228 235 241 259 257 237 233 225 223 212 219 226 201 192 181 179 182 172 165 155 152 153 150 155 151 135 134 133 131 136 141 130 122 119 100 95 92 96 96 103 115 123 126 140 144 155 179 183 176
225 230 226 264 245 252 240 231 215 212 226 224 213 196 190 182 196 189 180 168 161 158 159 160 159 152 143 141 141 139 136 135 133 128 112 112 95 100 108 107 114 119 125 149 150 154 172 170 178
231 224 231 266 223 247 251 249 227 211 228 218 213 202 190 193 205 203 187 184 181 164 162 167 160 163 156 155 156 152 154 147 154 146 133 128 121 96 98 114 122 138 140 137 151 145 150 159 171
234 222 201 236 234 266 236 216 266 258 230 213 208 201 197 196 205 215 202 198 196 187 172 180 170 159 168 159 162 173 168 161 183 170 178 183 180 148 137 159 136 149 154 148 127 142 146 175 199
227 232 229 246 216 250 197 239 263 242 215 210 203 204 201 196 206 218 210 206 204 206 200 195 192 187 171 178 165 181 174 175 187 193 213 212 216 224 230 194 177 180 207 185 147 136 145 163 182
230 231 230 237 189 182 206 211 269 212 203 222 219 209 207 205 205 216 214 213 212 210 217 213 201 205 194 193 186 185 173 182 183 175 202 209 223 227 235 232 229 204 232 213 206 182 182 168 180
244 247 241 236 194 201 232 205 328 193 191 211 233 229 228 214 202 204 209 209 209 209 217 216 217 212 213 217 198 204 204 199 192 189 182 214 212 229 238 232 218 229 229 236 226 226 202 189 185
239 244 223 238 105 113 11 49 33 319 183 243 253 223 223 217 203 200 205 205 206 215 209 218 222 216 223 219 225 211 227 220 212 205 211 227 191 203 263 261 238 229 229 241 235 228 221 225 216
208 229 233 231 256 245 66 117 100 351 265 258 275 282 219 202 198 205 203 207 214 220 221 213 221 227 221 228 222 235 233 235 225 228 228 226 237 254 273 253 246 242 236 232 239 243 238 246 242
216 219 233 235 239 234 224 271 218 256 271 265 274 293 221 202 197 196 213 210 212 214 225 228 223 222 229 229 227 228 234 239 231 229 235 233 240 254 269 233 245 240 238 238 239 239 234 241 259
208 215 223 223 230 235 243 220 258 272 285 267 325 1 220 184 197 197 209 218 218 215 223 226 230 222 222 226 234 234 239 244 247 239 238 240 239 239 236 232 238 240 246 253 254 252 249 249 247